Location: Coasta Le?ului
(46.4500°N, 22.8167°E)
Time: 23:19:05
(UTC+00:00)

Daily predictions for brighter satellites

Satellite Brightness Start Highest point End
(mag) Time Altitude Azimuth Time Altitude Azimuth Time Altitude Azimuth
Meteor 1-25 Rocket 4.4 15:07:42 10° N 15:13:07 50° ENE 15:18:33 10° SSE
ATLAS 5 CENTAUR R/B 3.9 15:05:24 10° NW 15:15:11 29° N 15:18:52 10° ENE
Cosmos 468 Rocket 4.1 15:10:55 10° S 15:16:00 62° ESE 15:21:09 10° NNE
Cosmos 1464 Rocket 4.2 15:09:37 10° S 15:16:01 85° W 15:22:27 10° N
MOS 1 Rocket 4.3 15:12:14 10° N 15:17:03 49° WNW 15:21:34 10° SW
Cosmos 1500 Rocket 3.6 15:15:19 10° N 15:19:45 65° E 15:24:07 10° SSE
Cosmos 2278 4.5 15:15:26 10° N 15:20:25 30° NE 15:25:22 10° ESE
Nadezhda 4 Rocket 4.1 15:15:01 10° N 15:21:24 85° E 15:27:44 10° S
Cosmos 1898 Rocket 3.5 15:16:31 10° NNW 15:21:47 70° ENE 15:26:58 10° SSE
ADEOS 4.2 15:17:24 10° S 15:22:34 62° WSW 15:27:46 10° NNW
USA 306 4.1 15:20:01 10° WNW 15:23:45 29° N 15:27:29 10° ENE
ARGOS 4.3 15:21:32 10° ESE 15:25:25 20° ENE 15:29:17 10° NNE
Cosmos 2221 3.1 15:22:40 10° SSW 15:26:53 59° WNW 15:31:09 10° N
Sich 1 3.6 15:23:07 10° N 15:27:06 36° ENE 15:31:06 10° SE
NOSS 2-2 (C) 4.4 15:23:17 10° NNW 15:28:13 53° NE 15:35:03 10° ESE
Cosmos 1602 4.0 15:25:05 10° N 15:28:49 46° ENE 15:32:33 10° SSE
Cosmos 1833 Rocket 2.7 15:23:15 10° SSW 15:28:49 71° ESE 15:34:27 10° NNE
Cosmos 1939 Rocket 3.0 15:24:51 10° SSE 15:28:52 55° ENE 15:32:52 10° N
Cosmos 2084 4.1 15:25:25 10° NW 15:29:41 62° SW 15:34:06 10° SSE
USA 276 4.3 15:27:55 10° W 15:30:39 28° SW 15:33:23 10° SSE
Cosmos 1805 Rocket 3.7 15:27:24 10° N 15:31:39 51° ENE 15:35:52 10° SSE
COSMOS 2406 3.4 15:26:46 10° S 15:32:24 59° ESE 15:38:02 10° NNE
USA 267 3.3 15:29:33 10° NE 15:36:07 82° SE 15:42:40 10° SW
Cosmos 1842 Rocket 4.4 15:32:01 10° SSW 15:36:24 56° WNW 15:40:50 10° N
Spot 1 4.5 15:32:08 10° NNE 15:36:53 83° WNW 15:41:52 10° SSW
Cosmos 1092 Rocket 4.0 15:32:00 10° N 15:38:22 69° E 15:44:40 10° SSE
Cosmos 1428 Rocket 4.5 15:33:09 10° N 15:39:14 61° ENE 15:45:18 10° SSE
CZ-2C R/B 3.3 15:35:20 10° S 15:40:12 70° WSW 15:44:58 10° NNW
USA 307 4.1 15:39:17 10° WNW 15:43:02 29° N 15:45:58 14° NE
CZ-4C R/B 3.1 15:37:35 10° NW 15:44:28 54° NE 15:52:34 10° ESE
CZ-2C R/B 3.5 15:41:26 10° NE 15:45:44 26° E 15:49:58 10° SSE
Cosmos 1782 3.0 15:43:09 10° S 15:47:00 50° E 15:50:53 10° NNE
Cosmos 1763 Rocket 3.7 15:42:29 10° SSW 15:47:32 69° WNW 15:52:39 10° NNE
H-2A R/B 2.2 15:46:59 10° SE 15:51:54 47° ENE 15:56:44 10° N
CZ-4B R/B 3.6 15:47:13 10° SE 15:52:10 38° ENE 15:57:05 10° N
USA 229 DEB 4.4 15:46:01 10° NW 15:53:19 68° WSW 16:01:04 10° SSE
USA 229 4.4 15:46:07 10° NW 15:53:25 68° WSW 16:01:09 10° SSE
PAYLOAD B 4.3 15:48:10 10° SE 15:53:37 56° ENE 15:59:06 10° N
Cosmos 1500 3.1 15:50:10 10° N 15:53:52 57° ENE 15:57:32 10° SSE
CZ-2D R/B 3.4 15:50:13 10° SSE 15:53:54 47° ENE 15:57:36 10° N
Cosmos 841 Rocket 3.5 15:49:46 10° S 15:54:51 63° ESE 15:59:57 10° NNE
ATLAS CENTAUR R/B 4.0 15:58:56 10° NNW 16:00:01 11° NNW 16:01:08 10° N
Cosmos 1937 Rocket 3.7 15:54:53 10° NNW 16:00:14 78° WSW 16:05:31 10° SSE
Cosmos 1627 Rocket 4.4 15:54:19 10° N 16:00:33 85° E 16:06:40 10° S
ATLAS 2AS CENTAUR R/B 4.4 15:56:12 10° NW 16:01:46 21° N 16:06:35 12° NE
SMAP 3.3 15:58:57 10° S 16:03:35 72° WSW 16:08:15 10° NNW
COSMOS 2455 2.8 15:57:55 10° SSW 16:03:55 75° ESE 16:09:18 13° NE
Meteor 2-21 4.4 15:57:53 10° N 16:04:01 81° E 16:10:03 10° S
Cosmos 1125 Rocket 4.5 16:00:13 10° N 16:04:35 26° NE 16:07:07 18° E
Cosmos 2279 Rocket 4.1 15:59:12 10° SSE 16:05:10 51° E 16:11:08 10° NNE
USA 308 4.0 16:01:57 10° WNW 16:05:45 30° N 16:07:37 21° NE
COSMO-SKYMED 1 3.2 16:04:26 16° NE 16:07:23 34° E 16:11:21 10° SSE
Lacrosse 5 rocket 2.0 16:04:04 10° NW 16:07:40 34° NNE 16:09:12 25° ENE
Cosmos 372 Rocket 3.9 16:03:06 10° NNW 16:08:23 82° ENE 16:13:37 10° SSE
AQUARIUS 4.4 16:03:58 10° S 16:08:26 75° WSW 16:12:57 10° NNW
Cosmos 921 Rocket 4.2 16:05:17 10° SSE 16:08:28 21° E 16:08:31 21° E
ATLAS CENTAUR R/B 3.0 15:59:07 10° SW 16:09:04 73° NW 16:12:03 20° NE
USA 234 3.3 16:03:17 10° SE 16:09:51 86° SW 16:16:26 10° NW
Cosmos 2360 Rocket 3.7 16:06:38 10° N 16:10:13 17° NE 16:10:24 17° NE
Cosmos 1633 Rocket 3.1 16:09:50 10° N 16:14:07 51° ENE 16:18:23 10° SSE
Cosmos 44 Rocket 3.7 16:09:50 10° NNW 16:14:32 42° NE 16:17:16 22° ESE
Meteor 1-26 Rocket 4.4 16:08:59 10° S 16:14:58 89° W 16:21:04 10° N
Meteor 1-11 Rocket 4.4 16:10:08 10° N 16:15:01 29° ENE 16:19:57 10° SE
SL-24 R/B - RUBIN 2 3.7 16:11:33 10° NW 16:16:05 77° SW 16:20:22 10° SSE
YAOGAN 1 4.3 16:19:41 16° NNE 16:19:41 16° NNE 16:20:53 10° NNE
ISS -3.6 16:14:46 10° WNW 16:18:10 74° SSW 16:20:02 24° SE
Cosmos 1666 2.5 16:19:27 10° N 16:23:10 70° E 16:26:52 10° SSE
Cosmos 1634 Rocket 4.2 16:17:04 10° SSW 16:23:24 79° W 16:29:46 10° N
Cosmos 1151 Rocket 2.9 16:19:30 10° S 16:23:47 70° E 16:27:48 12° NNE
PSLV R/B 4.1 16:22:10 10° S 16:25:48 62° W 16:29:31 10° NNW
Cosmos 2026 Rocket 4.4 16:21:13 10° NNW 16:27:17 64° W 16:33:15 10° S
CZ-4 R/B 4.4 16:26:24 10° SSE 16:30:25 55° ENE 16:34:29 10° N
Cosmos 1900 4.5 16:26:20 10° SSW 16:31:02 52° ESE 16:32:43 35° ENE
Cosmos 2322 Rocket 2.9 16:26:18 10° NNW 16:31:22 31° NE 16:32:01 30° ENE
Cosmos 1697 Rocket 4.3 16:26:46 10° NW 16:31:51 36° WSW 16:36:53 10° S
USA 305 3.7 16:28:07 10° NW 16:32:01 34° NNE 16:32:40 32° NNE
Okean O Rocket 1.5 16:30:51 10° SSE 16:35:15 67° ENE 16:39:42 10° N
Cosmos 1980 Rocket 2.7 16:31:16 10° NNW 16:36:52 62° WSW 16:42:24 10° S
Cosmos 540 Rocket 4.5 16:33:55 10° SW 16:38:46 44° WNW 16:43:41 10° N
Landsat 5 3.5 16:40:23 51° E 16:40:39 52° E 16:44:32 10° S
Cosmos 1666 Rocket 3.8 16:36:24 10° NNW 16:40:50 69° W 16:45:12 10° S
SJ-11-01 4.2 16:39:12 10° SSE 16:43:56 83° ENE 16:48:42 10° NNW
Cosmos 1470 Rocket 3.5 16:39:45 10° N 16:44:11 63° E 16:48:37 10° SSE
Cosmos 1328 Rocket 3.4 16:39:51 10° S 16:44:17 81° E 16:46:56 24° NNE
Cosmos 1812 3.3 16:42:05 10° SSW 16:45:51 56° W 16:48:49 16° N
Meteor 1-5 Rocket 4.5 16:40:46 10° NNW 16:46:46 78° W 16:52:38 10° S
SL-16 R/B 2.3 16:44:24 10° NNW 16:49:57 52° ENE 16:51:23 42° ESE
Cosmos 1655 Rocket 3.9 16:44:10 10° N 16:50:34 68° E 16:56:53 10° SSE
Meteor 2-8 Rocket 4.3 16:44:35 10° S 16:50:44 83° E 16:56:56 10° N
Cosmos 1570 Rocket 4.0 16:46:39 10° SSW 16:51:54 81° WNW 16:55:00 25° NNE
Cosmos 2082 Rocket 2.7 16:47:13 10° SW 16:52:48 58° WNW 16:56:54 19° NNE
Cosmos 1814 Rocket 4.2 16:48:42 10° SSW 16:53:54 68° WNW 16:57:16 22° NNE
Cosmos 2298 Rocket 3.9 16:49:33 10° NNW 16:54:54 69° ENE 16:58:05 24° SE
SKYMED 2 3.6 16:53:03 25° N 16:55:34 76° WNW 16:59:53 10° SSW
Cosmos 2180 Rocket 4.5 16:49:42 10° S 16:56:03 89° WNW 17:02:22 10° N
MOS 1-B Rocket 4.4 16:55:20 10° N 17:01:10 64° WNW 17:07:48 10° SSW
Cosmos 2333 Rocket 4.0 16:58:34 10° N 17:00:43 17° NNE 17:00:43 17° NNE
USA 306 3.8 17:00:19 10° NW 17:03:34 37° N 17:03:34 37° N
Cosmos 2278 4.5 16:59:18 10° NW 17:04:51 53° WSW 17:10:20 10° S
ARGOS 3.4 16:59:46 10° S 17:05:09 68° WSW 17:10:34 10° NNW
Cosmos 1818 3.6 17:00:56 10° NW 17:06:27 82° SW 17:08:58 33° SSE
CZ-2C R/B 3.7 17:06:11 10° SSW 17:07:51 13° S 17:07:51 13° S
NOAA 15 4.4 17:03:25 10° SSE 17:08:40 74° ENE 17:13:57 10° N
GEOS 3 Rocket 3.5 17:13:44 66° NE 17:13:44 66° NE 17:18:52 10° NW
USA 267 3.9 17:16:33 34° NNE 17:18:53 46° NNW 17:25:02 10° W
Meteor 1-27 Rocket 3.9 17:14:54 10° S 17:19:12 53° SSE 17:19:12 53° SSE
USA 307 4.3 17:19:29 10° NW 17:21:59 31° NNW 17:21:59 31° NNW
Cosmos 2219 Rocket 4.2 17:19:19 10° N 17:20:35 15° N 17:20:35 15° N
CZ-2C R/B 3.5 17:21:47 13° N 17:26:13 45° WNW 17:31:07 10° SW
SL-08 RB Rocket 4.4 17:23:07 10° S 17:27:39 54° W 17:32:11 10° NNW
Cosmos 1515 Rocket 4.2 17:23:18 10° SSW 17:26:52 52° SW 17:26:52 52° SW
H-2A R/B 4.3 17:27:25 10° SSW 17:31:33 24° W 17:35:37 10° NW
Cosmos 2150 Rocket 4.3 17:26:40 10° NNW 17:31:48 64° WSW 17:33:12 45° SSW
CZ-4C R/B 3.8 17:26:09 10° NW 17:33:14 49° WSW 17:41:18 10° S
BREEZE-M DEB (TANK) 4.2 17:08:04 10° SW 17:33:57 69° SSE 17:35:28 58° E
USA 32 4.5 17:36:07 10° SSW 17:40:19 55° SW 17:40:19 55° SW
Lacrosse 5 rocket 3.4 17:43:00 10° WNW 17:44:49 25° WNW 17:44:49 25° WNW
Cosmos 1125 Rocket 4.2 17:41:51 10° NNW 17:46:56 51° WSW 17:47:31 49° SW
COSMOS 2455 4.5 17:45:24 10° W 17:50:27 27° NW 17:52:28 23° N
ISS -0.2 17:52:51 10° WSW 17:53:03 11° WSW 17:53:03 11° WSW
Cosmos 2360 Rocket 3.6 17:49:33 10° NNW 17:52:11 28° NNW 17:52:11 28° NNW
ATLAS 2AS CENTAUR R/B 4.2 17:49:16 10° NNW 17:54:01 25° N 17:54:01 25° N
Cosmos 2322 Rocket 3.4 18:10:09 10° NW 18:13:54 37° WNW 18:13:54 37° WNW
SL-16 R/B 4.0 18:29:03 10° NW 18:33:21 27° W 18:33:21 27° W
